TimeCDT,TemperatureF,Dew PointF,Humidity,Sea Level PressureIn,VisibilityMPH,Wind Direction,Wind SpeedMPH,Gust SpeedMPH,PrecipitationIn,Events,Conditions,WindDirDegrees,DateUTC
12:54 AM,71.1,61.0,70,29.97,10.0,South,6.9,-,N/A,,Partly Cloudy,190,2013-08-20 05:54:00
1:54 AM,69.1,61.0,75,29.97,10.0,South,8.1,-,N/A,,Partly Cloudy,170,2013-08-20 06:54:00
2:54 AM,69.1,61.0,75,29.97,10.0,South,8.1,-,N/A,,Partly Cloudy,180,2013-08-20 07:54:00
3:54 AM,70.0,62.1,76,29.97,10.0,South,8.1,-,N/A,,Mostly Cloudy,180,2013-08-20 08:54:00
4:54 AM,71.1,62.1,73,29.96,10.0,South,8.1,-,N/A,,Overcast,190,2013-08-20 09:54:00
5:54 AM,73.0,63.0,71,29.97,10.0,SSW,8.1,-,N/A,,Overcast,200,2013-08-20 10:54:00
6:54 AM,72.0,63.0,73,29.99,10.0,South,8.1,-,N/A,,Overcast,170,2013-08-20 11:54:00
7:54 AM,73.0,64.0,73,29.99,10.0,South,10.4,-,N/A,,Mostly Cloudy,180,2013-08-20 12:54:00
8:54 AM,75.9,64.9,69,29.99,9.0,South,13.8,-,N/A,,Scattered Clouds,190,2013-08-20 13:54:00
9:54 AM,78.1,66.0,66,30.00,10.0,SSW,15.0,-,N/A,,Mostly Cloudy,210,2013-08-20 14:54:00
10:54 AM,81.0,66.0,60,29.99,10.0,SSW,17.3,-,N/A,,Mostly Cloudy,210,2013-08-20 15:54:00
11:54 AM,84.9,66.9,55,29.98,10.0,SSW,15.0,-,N/A,,Scattered Clouds,210,2013-08-20 16:54:00
12:54 PM,89.1,64.0,43,29.96,10.0,SSW,15.0,24.2,N/A,,Scattered Clouds,200,2013-08-20 17:54:00
1:54 PM,89.1,64.9,45,29.95,10.0,SSW,16.1,-,N/A,,Partly Cloudy,200,2013-08-20 18:54:00
2:54 PM,90.0,64.9,43,29.94,10.0,South,17.3,23.0,N/A,,Partly Cloudy,190,2013-08-20 19:54:00
3:54 PM,91.0,66.0,44,29.92,10.0,South,15.0,-,N/A,,Partly Cloudy,180,2013-08-20 20:54:00
4:54 PM,91.0,64.9,42,29.91,10.0,SSW,15.0,-,N/A,,Partly Cloudy,210,2013-08-20 21:54:00
5:54 PM,90.0,64.9,43,29.91,10.0,SSW,15.0,-,N/A,,Clear,210,2013-08-20 22:54:00
6:54 PM,88.0,64.0,45,29.91,10.0,SSW,12.7,-,N/A,,Clear,200,2013-08-20 23:54:00
7:54 PM,84.0,64.9,53,29.92,10.0,South,9.2,-,N/A,,Clear,190,2013-08-21 00:54:00
8:54 PM,81.0,64.9,58,29.93,10.0,South,9.2,-,N/A,,Partly Cloudy,180,2013-08-21 01:54:00
9:54 PM,80.1,64.9,60,29.95,10.0,South,10.4,-,N/A,,Clear,190,2013-08-21 02:54:00
10:54 PM,78.1,64.9,64,29.95,10.0,South,8.1,-,N/A,,Clear,180,2013-08-21 03:54:00
11:54 PM,75.9,64.9,69,29.96,10.0,South,9.2,-,N/A,,Clear,190,2013-08-21 04:54:00